Theta_e
325 325 325 326 327 327 327 327 327 329 326 325 325 325 325 325 325 326 326 326 326 327 327 321 324 322 324 326 324 322 319 311 308 306 303 305 319 326 325 328 327 328 327 313 308 306 305 305 304 305 305 304 301 302 300 301 300 303 296 293 290 292 290 293 292 293 295 293 294 292 291 291 288 290 291 292 292 291 291 291 292 292 293 295 294 295 296 297
325 325 325 326 326 327 327 327 327 328 326 325 325 325 325 325 325 325 326 326 326 326 325 326 323 325 326 324 322 322 321 313 308 305 304 316 323 325 327 326 328 326 320 309 306 306 304 302 303 305 304 300 303 300 303 298 302 298 296 294 289 292 291 296 294 296 295 293 294 292 289 290 290 291 291 290 289 290 290 291 292 292 294 294 294 295 297 298
324 325 325 326 326 326 327 327 326 328 326 325 324 325 325 324 325 325 325 327 327 328 328 327 326 325 324 324 321 320 319 314 308 302 305 322 323 325 326 325 326 326 311 305 304 305 304 302 302 303 302 299 299 298 301 296 300 294 296 291 291 294 294 295 295 295 296 296 292 290 290 290 289 289 291 290 289 290 290 289 290 291 291 293 294 295 297 298
323 324 324 325 326 326 327 326 327 328 325 324 324 324 324 323 324 324 325 325 325 327 327 326 325 325 325 322 323 321 321 311 302 302 308 321 322 324 324 323 323 317 305 305 304 303 303 303 302 303 299 298 298 299 296 295 298 296 296 292 292 295 293 293 294 295 294 294 292 290 289 290 290 290 291 291 290 289 291 292 291 291 292 293 295 296 297 297
323 322 324 324 325 324 326 326 327 327 325 324 324 324 324 323 322 323 324 323 324 324 324 320 319 321 321 324 319 319 320 304 302 306 309 319 321 323 321 319 319 309 306 304 306 304 305 302 301 300 300 295 298 297 294 296 298 295 291 295 295 294 292 292 293 291 291 290 291 290 290 290 291 290 290 291 290 290 292 293 293 293 294 294 294 295 296 296
322 322 322 322 323 324 324 324 325 325 324 325 325 325 324 325 324 324 325 324 323 322 321 321 321 319 319 316 322 327 315 294 303 304 316 318 319 321 317 318 313 308 304 305 304 304 305 303 303 299 296 295 294 293 294 295 295 290 292 291 293 294 292 292 291 289 289 290 290 290 291 291 291 290 289 289 291 292 293 293 293 294 294 295 296 296 295 296
321 322 321 321 321 321 322 322 323 323 324 324 325 325 325 325 325 324 324 324 324 322 324 322 324 321 319 320 314 309 302 299 304 308 314 316 316 315 312 315 309 306 306 305 303 302 301 300 299 296 296 294 294 293 294 296 298 295 290 292 291 293 291 289 290 287 289 291 290 291 291 291 290 290 288 289 293 294 292 290 291 292 292 292 294 295 295 296
321 322 321 320 320 320 320 321 321 322 323 324 324 325 325 325 325 324 324 325 324 323 323 322 321 320 319 324 313 303 301 298 304 307 313 313 308 304 307 308 304 306 301 299 302 301 301 299 297 298 295 294 293 294 294 294 295 292 290 291 289 290 288 289 289 289 290 289 289 290 291 290 289 289 289 291 293 292 291 291 291 291 292 292 294 294 295 295
321 322 321 320 320 320 320 320 321 322 322 323 324 324 324 324 323 323 323 323 323 323 320 322 320 320 320 320 311 302 297 303 305 306 307 304 303 301 304 304 303 303 299 299 298 301 302 295 298 298 293 293 294 293 292 292 290 292 290 291 290 289 290 289 290 290 290 290 289 290 290 290 289 288 289 293 293 291 290 291 291 292 292 293 294 295 295 295
322 321 320 320 320 320 321 321 321 321 322 323 323 323 322 322 322 322 321 321 322 323 321 317 316 317 322 319 311 298 301 304 307 307 305 303 301 302 302 302 302 303 302 299 300 301 302 299 299 299 296 293 293 290 293 294 290 292 291 291 291 289 290 290 291 289 289 290 290 290 290 289 289 288 290 293 292 291 292 292 291 293 293 294 294 295 295 295
321 320 319 320 320 321 321 322 322 321 322 322 322 322 322 321 320 320 320 320 319 320 320 318 318 317 312 313 302 296 304 305 308 307 305 303 301 300 298 300 302 302 301 300 299 301 301 300 300 300 299 293 294 291 292 290 293 291 291 291 290 290 291 290 291 290 291 290 288 291 289 289 289 289 292 293 290 291 292 292 292 292 294 294 294 294 295 294
321 320 319 319 320 321 322 322 322 321 321 321 321 321 320 320 320 320 320 321 320 320 318 316 315 311 310 304 299 299 304 304 306 307 307 304 300 299 303 301 304 305 302 298 297 299 300 299 299 299 294 297 290 293 290 291 292 290 291 289 289 290 291 290 290 290 290 290 289 288 289 288 289 290 293 291 290 290 291 292 292 293 293 294 294 294 294 295
318 318 318 319 319 320 321 322 323 322 322 321 321 320 321 321 321 321 322 320 320 319 319 319 316 320 310 299 300 304 304 305 305 306 306 307 304 304 303 303 302 303 305 301 299 298 296 297 301 295 296 295 292 291 293 293 290 291 291 291 288 289 289 290 290 290 289 290 288 288 288 290 291 293 292 290 290 290 290 292 293 293 293 294 293 293 294 295
318 318 318 318 319 319 320 321 322 322 321 320 320 320 320 321 321 320 320 320 322 319 317 316 320 311 305 297 303 304 304 307 306 306 303 306 304 303 304 304 303 303 303 299 301 302 301 301 299 296 296 294 291 295 292 291 290 291 287 290 290 289 288 289 290 289 289 288 288 288 289 290 291 293 291 289 289 291 291 293 293 293 293 293 294 293 294 295
317 318 318 318 318 319 319 320 321 320 320 319 318 319 319 318 318 319 320 320 320 321 319 316 321 313 301 299 306 303 314 308 306 303 302 303 303 302 302 304 302 303 303 305 302 303 303 303 300 295 291 294 295 293 290 290 289 289 288 290 289 290 288 289 289 289 289 290 290 289 289 291 291 292 290 289 289 289 291 293 293 293 293 293 293 293 293 294
317 317 317 318 318 318 319 319 319 319 319 318 318 318 319 318 318 318 318 317 317 319 323 314 312 307 301 298 302 311 306 303 303 305 303 303 302 302 300 301 306 304 304 302 303 307 306 302 294 293 293 294 293 293 290 291 290 288 290 288 289 289 288 288 287 288 288 288 290 288 289 290 291 292 289 288 289 289 291 292 293 292 292 292 293 293 293 294
317 316 317 317 317 317 318 318 318 318 318 317 317 317 318 318 319 319 317 313 311 315 318 310 308 308 297 308 311 302 301 303 304 306 304 303 301 299 303 305 304 302 306 310 307 309 304 301 292 295 295 291 288 291 292 292 289 290 290 290 287 288 288 289 286 287 290 288 289 290 289 291 291 291 290 288 288 289 289 292 293 293 293 293 293 293 293 293
316 316 316 316 317 317 317 317 317 317 317 316 316 315 316 316 316 316 317 315 313 312 308 313 311 306 297 315 299 299 301 302 305 303 301 304 300 302 305 303 302 302 311 309 306 301 300 297 299 293 294 293 292 292 292 287 290 289 290 289 287 285 285 286 288 287 289 289 289 289 288 291 293 293 291 290 288 289 290 292 293 293 293 293 293 293 293 294
316 315 315 315 316 316 316 316 315 317 318 317 317 318 316 318 315 312 308 311 314 309 304 300 302 299 294 299 304 303 302 304 303 305 304 303 303 301 305 303 304 306 302 300 296 300 298 298 299 297 292 290 288 287 289 287 288 289 289 289 288 289 288 288 287 286 287 289 289 289 290 291 292 293 293 289 287 288 290 292 291 291 292 292 292 293 293 294
315 315 315 315 316 317 317 318 318 317 316 321 324 323 324 314 311 306 307 305 298 297 300 301 301 300 302 303 302 305 302 301 305 306 304 303 302 304 302 304 306 300 298 295 296 293 294 295 291 289 289 288 286 285 285 284 285 286 287 289 287 287 288 286 285 286 286 287 289 288 288 289 291 293 295 290 287 287 288 290 291 292 292 293 293 293 294 295
315 315 314 315 316 316 316 317 316 315 313 319 325 319 302 303 300 292 296 298 298 298 301 300 300 302 300 301 303 303 303 302 307 305 304 303 300 301 300 304 304 296 290 285 290 295 298 294 288 287 286 285 285 285 283 285 285 287 289 289 288 288 289 286 286 286 289 287 289 286 288 291 293 295 294 289 288 289 290 291 292 292 293 293 294 295 295 296
315 315 314 314 315 316 316 316 316 314 313 315 316 306 303 308 303 305 305 295 300 301 301 300 300 302 300 302 301 298 302 307 303 305 307 305 303 299 297 300 298 293 291 291 293 296 293 289 287 286 284 284 284 284 284 285 288 288 290 289 289 289 287 285 285 286 288 287 290 288 288 291 293 292 292 290 290 292 291 292 293 293 294 293 293 294 295 295
315 315 314 314 315 315 316 316 313 314 318 321 308 307 305 305 305 304 310 301 298 301 303 303 303 302 303 302 300 298 302 296 296 303 301 303 303 294 298 297 293 290 295 295 295 291 291 289 286 285 285 284 285 284 284 286 290 289 290 291 289 287 287 288 286 286 287 287 288 288 287 292 293 290 289 288 289 290 291 289 290 291 292 294 294 295 295 296
314 314 314 314 315 315 316 315 313 317 305 309 309 306 304 303 303 305 310 298 296 298 301 299 300 301 300 301 302 303 301 297 297 298 304 302 298 293 297 294 292 292 289 290 294 293 288 287 284 284 284 284 286 287 287 288 289 288 289 289 288 287 287 286 288 287 285 286 285 288 289 293 293 292 292 290 288 288 291 290 290 292 292 293 294 292 293 293
313 313 314 314 313 314 313 315 312 305 305 310 306 305 300 301 300 309 305 297 300 298 300 300 300 301 302 305 305 300 299 300 299 298 302 301 296 297 291 288 295 289 289 289 294 291 286 285 285 284 285 285 285 289 287 288 290 288 285 286 286 284 286 286 287 287 288 289 287 284 289 289 293 291 290 292 292 292 292 291 294 295 294 293 292 293 295 295
312 313 313 315 315 314 313 315 305 307 314 308 308 303 298 299 304 305 306 292 288 296 302 297 304 298 304 301 302 298 302 298 297 301 301 300 299 295 291 292 293 290 287 290 290 289 287 284 285 286 287 288 288 288 286 285 290 289 287 284 285 285 285 285 287 287 288 287 288 287 288 286 294 292 292 291 290 292 294 293 294 295 295 294 294 295 295 296
312 313 314 314 315 312 312 310 307 308 307 305 304 299 299 303 302 306 300 291 287 296 293 299 301 299 304 299 296 298 290 292 300 300 300 300 299 297 298 289 292 289 290 289 291 287 288 286 284 284 286 289 290 290 286 285 287 289 284 285 285 285 286 286 286 289 287 287 289 288 286 288 288 292 292 290 289 294 295 296 297 296 295 294 294 294 295 296
312 313 314 313 313 310 315 307 306 309 308 304 297 297 299 300 302 307 300 277 278 299 295 299 300 307 304 299 300 297 293 295 295 297 299 299 299 300 300 291 292 290 286 290 290 287 286 287 287 287 287 288 289 286 285 285 286 287 285 286 286 286 285 285 288 288 287 287 288 289 287 287 287 291 292 289 293 293 295 295 296 296 296 295 295 294 294 294
313 313 313 312 311 309 312 311 312 308 302 298 294 300 302 304 307 303 292 279 288 294 306 295 306 301 299 300 298 293 295 297 295 296 299 299 300 297 294 288 290 288 288 289 290 286 286 286 285 285 287 288 286 285 285 284 287 285 285 285 285 285 285 285 288 288 286 287 286 286 284 286 287 291 293 293 292 292 294 295 295 296 295 295 295 296 295 293
313 313 313 313 313 316 310 310 310 302 296 293 298 299 303 305 304 296 283 275 292 288 297 299 298 294 295 296 295 296 297 294 292 295 298 296 299 299 291 295 294 294 291 292 289 286 286 288 287 287 286 285 286 286 284 285 284 285 287 287 287 286 286 286 287 287 287 286 286 283 284 283 286 290 291 291 292 292 293 294 296 296 297 297 297 296 294 292
313 313 312 312 321 309 313 306 306 299 294 298 299 305 305 306 295 287 274 285 298 293 296 295 293 297 295 296 293 294 293 291 295 295 295 300 295 295 293 291 296 293 289 291 288 287 286 287 288 287 287 286 288 287 285 285 287 287 288 288 287 287 287 287 288 287 286 285 284 282 282 282 285 287 293 295 293 291 292 292 293 295 295 296 296 295 294 293
311 310 310 309 305 303 313 308 304 297 298 298 308 311 306 292 291 286 281 296 286 290 292 290 289 289 291 290 290 290 290 292 290 293 292 291 293 293 290 293 290 288 286 287 287 288 289 288 286 285 286 286 287 287 287 287 286 288 287 287 288 288 289 286 289 286 286 285 283 282 282 284 287 291 293 294 295 294 293 292 293 293 294 295 296 296 294 294
310 309 309 306 306 307 302 297 297 299 299 305 311 308 298 290 279 285 285 287 286 287 289 292 290 291 287 292 289 289 289 291 291 290 289 288 291 289 287 288 286 286 287 286 286 286 287 288 286 286 286 286 286 287 289 288 288 288 288 288 289 286 283 282 283 281 284 285 282 283 281 285 289 292 295 293 295 295 293 292 293 292 292 292 293 293 292 294
309 309 307 303 302 301 300 297 298 299 308 313 315 302 291 284 281 287 282 286 286 288 290 289 288 289 289 291 288 287 289 286 289 290 290 288 289 288 290 288 288 291 287 285 287 286 285 285 286 287 286 285 285 286 285 286 288 287 285 287 288 288 285 281 284 284 284 286 286 281 283 287 287 290 293 294 295 293 292 290 290 290 290 291 291 292 294 295
306 305 303 303 304 299 298 294 298 299 312 313 301 296 286 284 282 286 286 286 286 289 291 285 291 293 287 288 287 288 290 288 287 290 290 288 289 289 290 291 287 287 289 288 284 285 284 286 285 285 286 285 285 285 285 285 286 287 286 286 289 287 288 287 283 284 283 285 286 284 287 289 292 293 294 293 292 292 291 291 291 294 293 293 295 297 297 296
309 303 306 304 306 303 297 296 296 302 316 305 297 289 290 288 290 288 290 294 289 291 288 290 293 290 286 288 287 289 289 289 289 288 286 287 286 289 286 286 287 288 288 289 287 286 282 286 285 286 285 286 286 284 285 284 287 287 287 289 286 286 286 279 276 273 274 281 286 285 287 290 293 294 295 295 295 296 295 296 295 296 296 297 298 297 297 297
303 309 308 305 306 304 299 296 300 309 309 302 293 290 290 284 287 287 292 293 293 294 291 288 288 289 286 286 288 286 289 291 288 288 288 286 288 288 287 288 286 285 286 289 287 288 288 286 285 285 285 285 284 285 285 285 285 287 288 287 285 283 285 286 286 282 284 284 285 284 286 289 289 287 295 295 294 295 295 295 295 297 297 296 297 297 297 297
305 305 303 304 303 302 300 299 302 306 310 301 291 293 284 288 286 291 289 288 290 293 290 290 287 287 286 287 286 287 289 288 288 286 286 287 288 290 288 288 286 287 287 286 288 287 289 287 285 284 285 286 284 285 286 287 286 287 286 287 287 287 287 286 286 282 282 282 283 286 283 285 288 291 292 293 293 294 295 295 295 295 295 295 296 296 297 298
301 307 304 302 299 300 301 300 308 311 308 295 290 292 287 286 287 288 289 289 289 292 290 288 289 285 287 287 287 285 287 288 287 287 287 286 288 289 290 289 288 286 285 286 288 287 286 288 285 284 284 285 285 286 287 286 287 284 285 287 285 286 286 288 286 285 287 282 280 285 284 288 290 292 294 293 293 293 294 295 295 295 295 295 295 296 296 297
305 303 300 300 299 300 299 304 308 304 294 294 292 289 285 287 289 287 285 288 292 290 290 290 283 287 285 286 287 290 285 286 288 288 287 287 288 287 289 287 288 286 286 284 287 287 288 285 288 285 284 285 287 287 287 287 287 286 286 286 285 285 285 285 284 284 286 284 283 283 284 289 294 293 294 294 294 294 293 294 295 295 295 295 295 295 296 296
297 300 300 304 300 297 303 302 295 293 293 283 282 284 283 288 289 288 286 285 288 286 290 292 289 290 286 285 286 286 287 286 285 288 287 287 288 289 285 287 288 288 286 286 287 288 289 287 288 285 285 286 286 282 282 280 282 285 287 289 289 286 286 285 285 280 280 285 280 282 284 290 296 290 295 295 294 294 293 293 294 295 295 296 296 296 296 295
302 292 297 300 299 301 308 296 285 278 289 289 290 285 288 292 290 288 288 284 286 289 288 289 285 286 284 287 288 286 287 287 286 286 286 289 286 287 284 277 282 283 287 290 289 287 287 288 288 286 286 286 284 282 281 280 279 281 283 286 285 286 288 289 284 283 281 280 279 283 282 288 295 291 291 293 292 292 292 290 292 294 295 295 295 296 296 296
299 295 305 301 300 307 300 290 288 289 287 286 286 288 285 289 289 288 290 288 288 289 287 289 290 290 287 288 283 284 286 288 286 289 286 285 285 284 280 277 278 284 286 288 287 286 288 290 286 284 285 284 283 282 280 279 279 279 279 278 283 288 287 288 289 286 287 279 282 283 282 290 295 291 290 289 289 289 289 289 292 294 294 295 295 296 296 296
296 299 302 301 298 309 302 291 291 287 285 284 286 285 286 288 288 287 288 287 287 289 290 286 287 287 289 284 286 287 287 288 285 287 286 283 286 281 279 280 279 287 287 288 290 288 287 287 289 286 287 288 286 283 284 280 280 283 286 283 282 282 283 280 282 282 286 282 285 286 283 290 296 292 291 289 290 291 292 292 291 293 296 297 295 295 295 295
294 296 299 302 300 304 297 294 290 287 286 284 284 284 286 286 286 288 289 289 287 288 289 289 288 289 286 285 283 282 281 285 285 282 283 283 285 283 281 280 281 286 285 285 287 287 288 288 288 287 283 281 282 285 289 288 286 286 282 281 282 284 280 284 286 285 285 282 281 285 287 293 295 294 293 293 291 293 293 293 293 293 294 294 295 295 294 294
295 291 293 297 297 295 290 287 292 289 285 283 285 285 286 287 287 286 287 288 287 286 287 289 286 288 285 285 286 284 284 283 285 284 284 283 284 282 283 281 281 284 284 284 285 285 285 283 286 288 289 289 289 288 284 284 285 286 283 281 281 282 284 286 288 286 287 283 282 287 289 291 293 294 293 295 293 293 294 295 294 295 295 295 294 295 294 294
296 295 289 290 292 290 291 291 288 290 291 290 290 284 284 287 286 287 287 287 288 288 288 288 287 288 286 288 284 285 283 285 283 285 282 284 282 282 279 281 280 283 285 287 285 284 285 288 283 282 284 286 282 281 280 283 285 285 284 283 282 282 283 286 287 288 288 284 284 288 288 286 292 295 295 295 293 294 294 294 295 295 295 294 293 292 292 293
294 291 289 290 292 291 291 291 290 287 285 291 288 288 287 286 285 286 286 286 286 286 288 287 286 289 292 292 289 287 284 284 283 284 282 282 283 282 283 281 283 284 284 283 283 285 287 287 281 282 282 280 280 280 279 282 283 283 283 284 281 283 282 283 286 287 288 288 289 287 284 287 291 294 296 294 293 293 293 295 294 292 291 292 292 292 293 293
293 288 291 286 292 286 289 289 288 289 288 287 288 287 285 288 287 288 287 285 286 286 288 288 288 290 289 290 292 288 286 286 285 283 283 282 283 283 283 284 283 283 281 282 281 280 286 286 282 281 282 282 280 279 279 282 283 282 283 283 284 283 283 285 287 285 287 289 288 285 284 287 292 294 295 295 294 293 294 293 291 291 292 292 291 292 292 292
292 295 290 287 286 283 285 287 289 290 289 288 288 287 289 289 291 286 286 287 285 287 288 288 291 290 289 287 288 290 290 294 295 286 286 284 282 284 287 291 285 281 282 283 283 282 285 286 282 279 283 282 279 277 277 279 280 282 285 284 283 283 283 284 285 283 282 283 285 285 284 285 292 294 294 294 292 291 290 290 292 292 292 291 292 292 292 292
295 295 296 293 292 286 285 288 289 290 289 288 288 287 287 289 290 290 288 288 291 289 287 290 292 286 285 286 288 290 294 293 293 293 289 290 289 290 290 288 288 282 281 280 281 281 284 283 279 280 286 286 276 278 278 274 278 277 280 283 282 279 277 281 281 285 284 286 285 285 285 286 293 292 291 290 290 291 292 294 294 293 292 291 292 292 291 291
293 290 293 296 290 289 288 282 285 288 289 291 290 290 289 292 292 291 290 288 283 287 289 291 291 292 285 288 289 292 293 291 292 289 290 285 286 285 286 287 290 286 283 284 280 286 285 285 284 285 286 285 278 274 276 274 277 283 285 285 284 283 285 284 285 285 287 289 286 285 288 294 294 289 291 291 291 292 292 293 294 293 293 292 291 291 291 291
Wind_Speed
6 6 5 6 5 6 6 6 6 6 7 8 7 8 8 9 9 6 6 2 1 1 3 1 2 2 3 3 5 7 4 15 19 17 21 6 10 15 14 14 15 16 10 5 7 9 9 12 14 6 9 10 6 5 3 7 6 3 6 9 11 6 9 3 5 3 7 9 7 6 1 4 6 4 3 3 4 4 3 3 2 1 1 2 3 2 2 1
6 6 6 6 6 6 6 6 6 6 6 7 8 7 8 8 6 5 2 2 2 2 2 4 4 3 3 4 4 8 7 15 19 20 11 7 18 16 16 16 16 17 7 4 1 5 13 15 11 9 7 10 7 6 4 5 8 8 6 9 9 3 4 4 4 7 6 8 7 3 2 3 5 3 4 3 4 4 6 4 2 5 4 3 2 2 2 3
6 5 6 6 6 6 5 6 6 5 6 8 8 7 7 6 6 4 3 3 3 1 3 2 3 3 4 3 3 7 5 14 19 16 14 16 21 18 18 17 17 16 1 1 3 6 10 5 2 9 10 12 10 7 8 6 5 8 4 10 7 4 6 3 3 4 4 10 7 6 2 2 4 1 2 1 5 3 2 5 4 4 6 6 5 4 4 3
6 5 5 5 5 5 4 5 5 5 6 7 7 7 6 7 7 7 6 6 4 4 4 4 4 4 2 2 4 4 5 17 11 7 9 19 22 18 18 17 16 10 3 10 3 10 6 10 10 12 9 14 6 6 11 8 3 5 6 7 7 5 8 4 2 2 3 1 7 4 4 4 2 1 2 3 5 3 3 2 1 5 7 8 7 6 4 5
6 6 5 5 4 5 5 5 5 5 6 6 6 6 5 6 7 6 5 4 4 4 6 9 9 7 2 3 1 5 1 11 4 9 12 22 21 18 18 16 13 7 2 7 3 7 10 9 3 10 9 7 4 10 9 10 8 8 8 9 9 3 9 3 4 3 1 2 5 4 5 4 2 2 2 1 1 4 3 3 3 2 6 8 9 7 5 6
6 5 5 5 5 4 4 5 5 5 6 5 5 4 5 4 3 2 1 3 5 8 9 10 6 10 9 3 4 3 2 4 6 12 17 21 20 18 16 15 11 5 5 6 4 5 6 8 6 6 6 7 11 10 4 4 6 10 5 5 5 4 10 2 2 2 2 5 6 4 3 3 2 2 1 3 1 4 3 2 0 1 1 3 6 7 7 7
5 4 5 5 5 4 4 5 5 5 5 4 4 4 3 3 3 2 2 3 4 1 2 5 6 5 2 5 18 21 13 6 4 12 16 20 19 16 15 11 9 5 2 6 7 9 11 15 18 8 10 14 12 13 9 11 11 11 8 5 7 3 8 1 2 0 2 2 3 2 2 1 1 3 2 3 3 3 3 1 1 0 1 2 6 8 8 8
6 4 5 5 4 4 4 5 5 4 4 3 3 4 5 5 4 4 5 5 5 6 5 5 6 5 3 2 10 10 11 7 16 11 18 18 15 14 9 5 6 4 14 8 4 12 7 13 15 5 11 9 1 10 4 17 12 12 11 5 5 6 4 2 2 2 2 4 1 2 2 2 2 2 1 2 3 2 2 1 2 3 3 4 6 8 8 7
6 5 5 5 5 5 5 4 4 5 5 4 5 6 8 8 7 7 7 7 5 4 3 3 3 5 2 5 8 12 9 9 10 13 16 15 13 11 4 1 10 11 6 5 7 4 3 1 5 3 9 14 1 12 4 3 8 6 10 7 6 6 5 1 4 3 2 2 0 4 1 1 1 2 4 3 2 2 2 3 3 4 5 7 8 8 8 7
5 5 5 5 5 6 5 5 6 6 6 6 7 9 10 9 9 10 9 9 7 5 3 3 7 4 8 8 7 12 4 7 6 12 14 11 8 5 10 7 4 7 5 7 7 3 2 4 13 15 21 15 4 6 4 5 8 6 10 10 10 5 4 2 2 3 1 2 3 2 0 1 1 3 4 3 3 2 4 4 3 5 7 8 7 6 6 6
5 5 6 6 6 6 5 5 7 7 7 8 9 10 11 11 10 9 9 10 11 12 10 9 11 12 10 6 12 9 3 7 6 9 12 10 11 14 11 7 6 13 18 15 16 13 13 18 14 8 7 7 9 11 10 7 12 11 13 12 9 7 6 2 3 3 2 2 4 4 1 0 1 1 1 5 3 1 5 6 5 6 7 7 7 6 5 5
7 7 7 7 7 6 6 6 8 8 10 10 11 11 11 10 10 9 9 8 8 8 7 8 17 12 13 18 13 5 2 2 5 7 6 11 12 6 5 6 8 6 16 14 10 6 5 4 1 2 8 7 11 14 9 1 6 6 3 7 3 3 4 7 2 4 4 2 3 3 2 3 3 4 3 3 2 2 4 6 6 7 6 6 6 6 6 7
9 8 7 7 8 7 7 8 7 8 9 9 9 9 9 8 7 7 5 9 9 9 6 5 4 2 13 13 4 2 1 3 4 7 9 7 5 10 11 13 14 13 9 13 5 1 2 3 8 21 7 6 6 2 9 3 3 3 4 6 5 3 4 5 1 3 3 2 3 1 2 2 6 6 3 2 2 2 4 7 7 6 6 6 6 6 7 7
9 9 8 8 8 8 8 8 7 8 9 10 9 9 9 9 7 6 9 7 4 6 8 7 1 13 15 5 1 2 4 2 5 9 14 11 8 11 15 12 12 12 10 18 10 6 14 11 23 18 6 6 8 7 12 3 2 4 1 3 0 3 3 3 3 6 2 2 2 3 2 2 4 6 4 2 2 6 8 8 8 7 6 6 5 6 7 8
9 9 9 9 9 9 8 8 7 8 10 10 9 10 11 10 10 10 5 5 8 2 3 3 3 7 11 2 4 2 2 4 8 7 7 11 6 9 11 8 13 10 8 9 7 4 4 4 13 10 8 5 13 10 6 3 1 3 2 2 1 2 3 3 2 6 2 2 2 3 3 1 3 5 5 2 2 5 8 8 8 7 6 6 5 6 7 8
9 9 10 9 9 9 8 7 7 9 9 10 9 9 8 10 12 11 9 4 3 3 4 8 8 14 14 6 2 2 3 6 9 5 2 8 9 7 2 3 3 7 4 6 4 3 4 12 15 6 9 3 4 5 7 4 3 2 3 2 1 1 2 3 2 2 1 3 1 3 3 2 4 4 4 1 4 6 8 8 7 7 8 7 7 6 6 6
7 10 10 10 9 9 9 8 9 11 11 13 14 13 12 10 7 8 10 9 6 1 4 4 3 3 8 2 2 3 5 2 3 2 6 4 5 1 1 1 5 4 2 9 6 2 9 10 3 2 6 5 1 1 2 2 2 2 2 1 1 0 1 1 3 1 3 3 2 2 3 3 2 2 4 3 3 6 8 10 9 8 7 7 5 6 6 7
6 10 11 10 10 9 8 8 9 9 9 9 11 13 17 21 19 13 11 8 4 8 7 5 1 6 6 3 3 2 1 4 6 5 3 2 3 6 5 6 2 2 3 1 8 10 6 4 2 4 2 4 3 1 2 2 2 1 2 2 2 2 3 4 2 3 7 4 3 2 6 11 7 4 6 6 3 6 9 9 9 8 7 7 6 6 7 7
5 9 10 11 10 9 9 9 9 5 3 1 2 1 0 2 9 13 12 6 3 1 2 8 7 1 6 3 2 3 2 1 2 5 7 9 4 1 4 2 4 2 0 4 5 6 6 4 1 3 4 6 6 5 4 3 2 2 1 2 1 1 2 0 2 2 6 6 4 3 5 5 6 5 5 4 4 7 9 6 6 7 6 7 7 7 7 7
5 8 9 10 10 8 6 5 5 5 5 2 3 1 2 2 4 4 8 16 10 3 4 2 1 5 11 5 3 4 2 1 1 4 2 2 5 3 5 4 4 10 6 3 5 5 5 6 5 3 2 3 4 3 3 2 3 2 2 2 2 1 2 2 1 2 1 4 2 2 5 7 10 9 5 6 4 4 7 8 8 8 8 8 8 8 8 8
5 6 8 9 10 8 7 6 5 4 4 4 2 2 2 5 6 2 1 6 2 2 3 4 4 6 6 1 3 6 1 3 2 8 8 4 1 2 4 5 4 7 6 3 1 2 3 7 4 2 4 5 4 2 2 2 1 3 1 0 2 1 2 2 1 2 1 5 0 1 6 11 11 10 3 5 4 8 9 8 9 10 9 8 8 9 9 10
3 5 7 9 9 8 5 5 3 4 4 4 5 4 3 1 2 2 5 7 4 3 0 2 4 6 2 1 2 1 2 1 7 12 3 12 5 2 6 6 5 6 3 2 2 3 7 6 2 2 3 2 1 1 3 3 1 1 2 0 1 2 3 1 1 1 1 2 2 1 8 11 8 7 3 4 6 3 3 5 6 5 7 7 7 8 8 7
3 3 6 7 7 6 5 4 6 3 2 2 3 5 3 1 3 3 1 11 7 2 6 5 7 7 5 2 1 2 6 8 2 7 11 10 3 8 1 5 7 2 2 5 4 3 5 2 3 2 1 1 1 1 2 2 2 3 1 1 3 3 4 1 2 2 2 2 4 8 6 6 4 2 3 1 3 3 3 5 7 6 8 7 7 6 6 8
2 3 4 6 5 4 4 3 2 5 5 4 7 5 3 1 1 1 2 5 6 4 5 2 2 3 4 4 3 5 5 2 1 9 7 5 4 3 4 5 9 5 6 6 3 5 5 4 2 2 2 2 1 1 1 3 0 2 3 2 1 2 1 2 2 3 2 2 3 9 4 1 5 5 4 4 2 3 3 4 7 7 8 8 6 7 7 9
2 3 4 3 5 3 4 2 6 2 3 4 4 1 1 0 1 2 3 4 3 3 1 1 1 3 3 2 4 1 3 5 5 4 4 5 1 1 4 1 1 4 1 4 8 11 5 3 0 1 1 2 3 2 3 3 1 2 1 2 2 0 3 3 6 5 3 3 4 8 2 5 3 2 2 4 3 4 2 4 8 7 6 6 8 10 8 9
2 2 3 3 3 3 4 3 1 1 3 4 1 2 1 1 2 2 3 3 2 2 1 3 2 2 3 2 7 3 4 4 3 2 3 3 3 3 5 4 4 6 4 3 7 4 3 1 2 2 2 1 1 2 2 2 1 1 2 1 1 1 2 3 5 3 1 2 5 3 4 3 1 7 6 4 5 6 2 5 8 6 5 6 8 8 7 8
3 3 2 2 3 4 3 2 2 1 5 2 2 1 0 0 1 1 1 2 2 1 2 1 2 3 1 3 2 1 1 1 1 1 2 2 2 3 4 2 4 6 3 2 2 3 1 1 2 1 1 1 3 1 2 2 2 1 1 2 2 1 2 2 4 3 2 2 2 4 4 1 4 5 3 4 4 4 3 3 2 3 4 5 5 6 6 6
3 4 4 4 4 1 1 7 5 4 1 2 2 2 1 0 1 1 0 3 1 3 2 2 1 1 1 1 2 3 2 2 1 3 3 3 2 3 5 3 3 5 1 2 1 3 2 1 1 1 1 3 0 2 2 1 2 2 3 1 1 1 1 2 2 2 2 2 3 3 9 2 2 3 2 3 3 8 7 8 6 5 2 1 2 3 5 7
5 7 9 9 12 10 7 5 5 4 2 1 1 1 1 2 2 2 1 1 0 3 1 3 2 1 5 3 6 2 1 5 3 3 4 3 7 3 5 1 6 9 4 2 2 4 2 3 2 2 2 1 2 2 2 2 1 2 3 2 2 1 1 2 1 0 1 2 2 6 7 1 4 3 5 0 1 7 8 8 7 5 6 5 5 4 3 3
7 8 10 9 7 4 3 3 4 1 1 2 2 2 2 3 1 0 0 1 2 1 2 2 1 2 3 3 4 8 5 4 1 6 6 4 8 7 8 0 3 5 8 9 11 3 2 2 1 2 3 2 2 2 1 2 2 1 3 2 2 1 0 0 1 1 1 1 3 3 5 4 2 5 4 6 6 7 8 7 4 5 5 5 3 4 4 5
6 6 4 2 3 2 2 3 1 1 1 2 2 3 2 3 1 2 1 0 2 1 1 4 0 4 2 3 4 4 3 4 6 5 3 3 6 7 4 3 1 4 3 5 6 2 1 2 1 2 1 1 1 2 1 0 0 2 1 1 1 2 2 1 1 1 1 1 2 3 4 4 0 2 2 3 2 3 6 8 10 10 9 7 7 6 5 5
12 13 10 8 2 1 1 5 4 3 2 3 2 2 2 2 0 1 1 4 1 1 2 1 1 1 4 2 4 5 2 3 4 5 2 3 2 0 3 2 3 3 0 1 2 2 1 2 1 1 2 3 1 3 3 2 2 2 2 2 2 1 0 1 0 0 2 2 2 1 4 1 1 1 4 7 6 5 3 5 7 9 10 9 8 9 7 6
16 16 16 8 1 5 3 2 2 3 3 2 3 2 1 2 1 0 1 0 0 2 1 2 1 2 1 2 3 2 3 3 3 2 1 1 1 4 0 1 2 1 1 3 3 1 1 2 1 2 2 1 2 2 1 2 2 1 1 2 1 1 2 1 0 1 2 1 1 2 1 1 2 2 1 4 6 6 5 5 6 7 9 10 10 9 8 7
9 9 11 3 7 4 3 2 1 2 1 0 2 4 4 1 1 1 1 1 0 1 3 2 1 1 5 2 1 2 2 0 2 1 1 1 1 1 2 1 1 1 2 1 1 3 2 2 2 0 1 2 1 2 3 2 2 2 1 2 2 1 1 0 1 2 2 2 1 1 2 2 1 3 2 5 6 6 4 3 4 6 6 6 7 7 6 6
16 14 9 3 4 4 3 1 1 2 1 2 6 1 2 2 1 3 2 2 2 1 2 2 2 2 2 2 2 2 2 1 2 0 3 1 3 1 3 3 2 1 1 3 0 0 1 2 2 2 2 3 1 1 1 2 1 1 0 3 1 2 1 1 2 1 0 1 1 1 2 1 2 2 4 2 4 3 3 2 3 2 1 3 3 5 6 7
8 2 3 4 3 2 2 1 1 3 0 4 3 1 2 2 1 2 1 5 4 5 5 2 3 3 1 0 2 2 0 1 1 1 1 1 1 1 2 0 2 3 2 1 3 2 1 2 2 1 1 2 2 1 1 3 0 2 1 1 2 2 2 5 2 3 1 1 1 1 4 3 4 3 1 2 2 3 4 6 6 7 6 4 6 7 8 7
6 1 5 3 3 3 1 1 2 1 3 5 3 2 1 1 0 2 1 4 2 8 6 4 3 3 3 3 1 1 1 0 0 1 2 1 1 5 3 2 0 1 1 1 1 1 1 1 2 1 2 1 0 2 2 1 2 2 0 3 4 1 2 1 1 1 0 0 0 1 2 2 2 2 1 1 2 5 6 7 6 6 7 8 7 7 7 8
4 4 4 3 3 2 1 1 0 3 3 2 1 0 0 1 2 0 2 3 3 1 4 1 1 3 3 2 3 3 1 1 3 0 1 2 0 3 3 3 1 1 1 2 1 1 0 2 1 1 1 1 2 1 2 1 2 3 2 2 3 1 1 1 0 0 0 1 2 1 1 4 4 1 3 1 3 4 5 6 6 8 8 8 8 9 8 8
4 4 3 2 1 2 1 1 1 2 2 1 0 1 1 0 1 1 2 1 1 3 3 2 1 1 1 2 2 3 3 3 4 2 3 2 2 2 2 1 2 1 1 2 0 1 1 0 1 1 0 1 2 1 1 2 2 2 2 1 0 2 2 1 1 0 1 1 1 1 1 0 5 1 2 3 2 1 3 5 6 6 7 6 6 7 7 7
5 3 1 1 3 1 1 1 3 5 2 1 1 1 1 1 2 1 1 2 2 2 1 4 1 3 1 1 2 3 2 1 5 2 1 1 1 1 2 1 3 3 1 1 0 2 0 1 1 2 2 1 2 1 1 1 4 3 2 0 1 2 1 1 2 1 1 0 1 1 1 1 2 4 4 5 2 1 1 3 4 5 6 6 6 6 7 7
2 3 1 1 4 0 1 8 6 1 1 1 1 1 0 1 4 1 2 1 1 2 1 3 6 2 5 3 2 1 4 2 0 2 2 1 4 1 2 2 0 4 2 2 0 2 1 0 0 2 1 2 1 4 2 3 4 2 1 1 2 4 2 1 1 2 1 1 1 2 2 1 2 3 4 5 4 2 1 3 4 5 6 6 6 6 5 6
5 2 1 1 4 1 1 3 3 1 1 2 1 2 1 2 3 2 1 1 2 1 2 4 3 4 2 1 1 5 3 3 2 0 2 2 1 2 2 3 1 2 2 2 1 1 1 1 2 2 0 1 3 3 2 2 2 2 2 1 2 2 1 1 1 2 0 1 2 1 1 1 2 4 4 3 3 1 1 2 5 5 6 6 6 5 5 4
3 3 2 4 5 3 7 3 0 1 1 1 4 3 1 1 3 1 3 2 0 0 1 1 3 3 3 1 2 2 3 1 6 4 2 2 1 2 1 1 2 1 1 2 2 1 2 0 2 1 1 2 1 1 0 2 1 1 1 0 1 2 0 1 1 1 2 2 1 1 2 1 2 1 2 2 2 2 3 5 7 6 6 5 5 6 6 7
3 3 1 0 0 1 3 4 3 1 0 1 2 1 2 1 2 3 3 2 1 3 2 3 1 3 3 2 2 4 6 2 2 2 1 1 1 3 2 1 2 1 2 1 0 2 2 1 0 2 0 1 1 2 1 1 1 2 1 3 1 2 2 1 3 1 0 5 0 1 3 0 3 1 1 1 1 3 3 5 6 6 6 5 5 5 5 6
5 2 2 3 6 2 4 1 3 3 1 3 2 2 1 0 1 1 1 4 1 1 3 2 1 4 4 1 4 3 3 1 1 2 3 1 2 1 2 1 1 1 2 2 2 3 1 1 3 3 3 2 2 2 2 3 5 4 1 3 4 6 7 4 2 2 2 1 2 2 3 2 1 1 4 4 2 2 5 5 5 7 7 6 5 4 6 6
1 4 2 1 6 5 5 2 3 5 5 3 1 1 1 2 1 1 1 2 1 2 2 4 0 1 4 2 2 1 1 1 1 2 2 2 2 1 1 0 1 1 1 3 2 1 1 1 1 1 1 2 1 1 2 2 4 3 3 6 7 4 1 1 2 2 5 4 5 8 3 3 4 7 8 6 3 4 5 3 3 4 3 4 4 5 5 6
1 2 3 3 2 2 1 1 1 3 3 6 3 4 4 2 2 2 2 1 4 2 2 1 3 6 2 2 3 3 1 1 1 3 0 3 0 1 1 1 1 2 4 1 2 0 1 1 2 1 3 0 2 1 2 3 1 1 5 6 6 7 7 7 7 3 7 8 4 7 6 3 9 5 6 4 4 3 3 4 4 3 4 4 5 6 7 6
3 1 2 1 3 3 2 4 5 2 2 5 0 4 6 4 3 4 1 1 1 3 3 1 1 5 8 8 7 5 5 2 1 3 3 1 2 0 1 1 2 1 0 0 2 1 1 2 1 0 1 0 1 0 3 1 1 1 1 5 10 10 8 10 9 4 10 5 5 2 4 8 11 8 4 2 1 5 6 7 3 4 6 5 5 5 6 7
2 1 1 3 1 1 0 0 6 5 5 1 1 1 6 9 10 5 5 4 1 3 5 4 8 11 9 3 5 3 7 4 4 1 4 4 3 4 2 0 1 1 1 0 0 0 1 0 2 1 1 1 2 2 2 2 1 1 6 6 5 11 14 13 8 4 11 11 3 1 3 13 10 9 6 5 1 5 6 3 3 4 5 4 5 4 6 7
3 4 1 3 5 4 1 2 5 8 4 2 3 4 8 10 10 4 2 5 4 4 4 4 5 8 8 8 5 6 11 4 5 9 8 7 1 4 4 4 6 2 0 2 1 0 0 0 4 2 0 1 2 1 2 3 1 4 4 6 7 7 8 10 6 3 2 12 13 6 9 13 13 11 13 2 2 2 5 7 5 4 4 3 3 4 6 7
1 1 5 7 2 0 1 3 3 4 3 1 2 3 3 6 9 9 4 1 2 9 10 13 8 7 2 4 4 6 4 6 4 1 16 14 9 9 6 4 10 8 3 2 1 1 2 1 1 1 1 1 2 2 1 2 1 4 8 8 8 7 8 8 9 12 9 11 4 3 8 12 11 6 3 1 2 5 7 6 4 3 2 2 2 6 7 7
2 1 1 4 3 2 2 2 1 3 4 4 6 7 6 10 5 9 2 2 2 2 3 3 10 7 2 4 12 7 1 4 2 2 6 4 5 7 5 3 3 10 8 3 1 3 2 4 3 2 1 2 0 2 3 4 3 6 11 15 21 13 5 1 5 3 14 7 4 4 10 5 2 3 7 5 5 6 6 5 4 3 1 1 3 4 5 5
Wind_Direction
52 52 51 50 53 60 65 61 55 44 50 57 65 70 79 86 81 82 91 104 130 278 293 354 349 34 35 0 324 298 334 80 59 41 47 37 317 318 319 318 317 316 329 296 254 254 62 52 53 11 71 52 360 47 338 38 350 286 53 86 73 85 92 120 91 83 106 136 151 175 236 162 131 156 123 211 117 85 131 103 91 167 262 341 58 352 26 81
52 51 46 43 50 54 56 59 56 48 52 57 64 68 72 73 70 66 55 43 9 349 337 330 330 341 323 318 316 307 302 71 62 53 62 343 345 339 332 332 334 332 316 265 218 121 86 72 65 51 67 59 337 61 295 51 349 45 75 74 100 42 75 14 69 105 128 128 140 131 164 285 104 172 161 214 128 148 131 109 131 124 116 142 182 139 169 149
54 48 42 41 47 57 56 61 58 45 55 59 62 68 70 69 71 62 53 39 31 18 359 338 322 311 272 286 296 297 291 56 45 18 351 355 343 340 339 339 337 335 294 250 14 51 85 103 21 71 40 85 7 53 31 32 349 21 64 83 70 53 91 63 40 91 5 129 136 148 144 197 116 246 156 235 132 192 157 147 165 167 161 172 161 168 157 181
56 45 48 39 41 58 59 67 64 52 66 65 66 68 77 79 81 83 66 52 34 27 31 28 356 300 237 220 261 294 276 70 46 320 346 349 338 336 339 334 328 318 312 65 53 88 92 75 51 73 78 65 56 25 47 358 18 360 54 70 119 128 118 63 349 45 107 324 131 121 154 149 152 216 260 139 169 109 117 197 116 169 172 170 172 171 173 184
47 50 44 40 46 64 69 70 66 65 83 76 72 70 76 86 89 85 72 57 40 63 90 77 53 38 110 143 246 247 351 79 36 339 346 343 334 339 333 323 324 312 132 153 128 61 69 58 54 50 56 87 42 68 36 31 47 83 56 66 105 112 95 59 83 65 103 311 123 140 157 108 113 190 180 234 307 93 78 124 175 117 159 170 175 180 182 195
62 48 46 50 49 47 62 78 75 78 76 78 72 70 73 76 71 61 25 20 44 90 125 111 67 61 89 196 244 163 3 104 345 328 339 334 333 333 324 312 318 278 254 57 66 43 64 38 54 46 47 58 22 74 12 24 280 95 63 50 58 353 110 101 136 138 224 145 139 150 88 139 235 118 63 284 301 75 68 70 53 134 103 148 173 172 193 201
74 57 57 65 63 59 58 66 73 71 74 70 69 70 75 74 73 58 43 44 28 359 338 278 304 306 264 285 60 60 76 122 313 326 335 334 327 328 310 291 305 240 180 90 66 71 82 85 72 75 101 84 57 79 62 68 48 95 108 102 70 55 99 59 93 240 258 214 126 55 147 217 207 182 104 258 215 137 121 3 315 73 136 176 180 190 198 206
80 67 69 70 69 63 63 63 65 66 66 67 73 76 78 74 63 52 44 27 6 354 335 339 348 345 298 304 59 48 51 353 331 332 331 333 328 321 312 285 340 49 52 45 63 100 83 60 97 118 41 82 159 92 93 78 44 84 100 107 110 71 71 91 93 114 126 66 46 198 201 49 335 19 287 233 146 128 123 127 159 151 158 177 207 196 204 211
83 70 78 77 72 71 66 66 61 59 59 64 73 88 88 82 71 60 46 29 13 356 338 40 68 67 192 91 99 69 23 334 323 321 339 335 323 321 31 355 345 75 94 54 2 106 49 93 88 285 145 103 57 104 345 71 66 33 102 111 113 105 115 107 110 81 69 120 2 222 87 60 75 316 244 167 114 96 123 158 143 157 170 189 205 205 206 213
78 74 82 82 81 76 76 71 67 63 64 77 89 93 91 86 79 72 63 56 51 48 56 100 63 63 46 81 68 75 12 306 325 338 337 336 302 268 40 26 328 77 67 351 50 44 49 155 105 96 105 78 64 38 302 37 113 121 114 109 107 117 121 54 114 85 40 70 324 248 185 115 139 289 154 188 110 125 163 155 154 183 191 197 203 209 219 228
72 76 81 84 86 84 80 79 79 72 76 85 91 94 96 91 86 75 68 61 61 68 69 87 92 62 50 39 83 85 352 336 351 336 339 312 31 31 6 346 336 96 88 59 55 58 99 116 122 150 49 117 98 48 63 83 118 117 119 103 93 111 85 114 137 63 261 138 354 345 110 173 114 227 310 126 109 160 190 174 175 197 204 203 208 216 221 236
80 85 81 83 86 85 84 88 87 85 83 86 89 93 93 91 84 81 67 60 54 59 70 50 78 109 76 64 61 66 310 332 309 332 345 2 55 25 20 27 33 354 99 95 66 20 34 106 95 327 130 198 79 107 67 112 107 130 239 101 97 132 101 24 23 3 311 92 0 340 223 214 186 227 121 96 80 170 211 197 196 205 212 214 215 221 226 234
85 81 82 81 81 82 84 87 91 92 89 82 80 83 85 84 78 64 62 53 41 59 57 41 24 47 86 60 26 251 311 277 318 320 4 17 94 61 50 47 54 43 57 95 83 21 244 228 116 81 56 107 122 42 140 140 85 165 63 104 130 154 97 27 252 342 264 73 335 251 212 118 192 197 133 104 168 159 204 218 211 214 214 221 220 229 236 234
80 77 78 79 80 81 85 89 95 102 95 89 90 87 82 71 64 60 64 80 43 36 51 54 63 73 79 99 141 202 257 243 264 10 5 332 55 51 55 45 55 65 58 91 92 55 72 71 86 98 69 67 116 148 112 105 263 144 153 280 60 212 98 65 14 342 205 67 331 212 313 125 171 185 132 105 190 195 211 215 216 218 222 224 228 235 243 244
78 76 76 77 78 82 84 91 99 101 97 96 91 91 80 73 67 59 46 65 17 319 208 213 35 82 76 77 251 289 246 233 27 17 0 1 344 60 33 32 55 56 56 67 93 47 32 255 70 60 70 29 119 137 96 110 65 92 220 129 151 281 111 114 75 17 360 119 301 268 249 52 167 166 130 116 179 209 227 224 223 226 230 233 235 239 246 251
77 77 76 76 78 81 84 88 98 96 95 96 95 89 86 74 67 66 53 54 329 360 245 63 32 102 101 84 63 216 34 30 4 340 16 11 1 81 288 29 87 51 48 46 57 88 34 60 58 80 112 181 121 121 137 152 135 161 280 97 84 359 98 190 133 115 17 287 217 256 328 315 213 140 122 108 188 198 226 235 233 235 242 245 243 243 251 266
81 77 75 75 77 79 85 91 96 97 100 99 90 83 82 75 67 71 60 40 7 310 73 114 193 278 70 216 289 5 353 9 272 359 357 42 15 311 248 43 31 41 37 105 46 63 7 56 259 120 35 73 350 318 202 107 124 101 335 77 15 267 182 146 121 204 344 267 210 171 249 245 64 146 155 167 200 194 223 234 234 234 238 240 246 252 252 254
78 78 74 74 76 79 83 90 92 92 88 85 90 93 81 74 58 36 7 13 340 58 74 122 201 69 60 17 111 55 359 291 3 330 264 24 1 14 39 49 315 272 28 73 29 40 333 82 293 98 136 64 20 209 258 69 5 96 134 144 145 210 269 326 272 54 329 160 274 213 253 265 256 200 204 193 191 220 228 229 234 232 234 238 242 245 251 255
73 81 77 76 78 83 91 103 98 67 351 353 166 89 266 33 87 64 30 339 11 8 170 347 360 221 129 147 292 271 295 22 270 343 355 6 341 105 63 119 29 360 72 44 3 20 352 99 177 63 36 6 23 358 26 54 350 88 335 66 82 247 123 325 69 46 358 326 292 233 271 303 295 271 182 159 182 217 237 245 253 251 248 248 243 245 246 249
75 83 83 80 81 85 87 68 23 17 349 37 14 81 34 58 20 44 4 42 53 45 43 334 311 109 71 36 19 329 243 240 98 16 358 54 308 319 50 20 86 66 37 57 326 50 297 77 46 59 19 347 324 336 343 327 338 93 100 118 60 321 131 98 159 27 341 270 227 323 293 280 277 269 241 140 153 222 239 241 236 235 236 235 238 240 243 243
75 84 86 86 83 81 72 66 48 44 76 97 89 58 151 153 93 106 33 78 193 327 39 58 40 39 84 341 1 352 223 53 157 25 23 276 182 259 360 337 17 56 33 300 343 296 255 75 44 5 331 304 312 290 293 269 23 310 87 164 112 326 4 80 14 24 355 337 25 168 294 277 265 270 206 123 177 228 220 227 235 235 229 234 236 243 241 246
72 81 83 79 76 79 91 77 79 83 87 89 59 94 85 253 322 52 150 90 52 47 345 24 253 62 322 95 76 311 265 100 37 0 15 2 326 229 358 66 46 81 350 318 211 59 43 71 72 42 93 70 64 216 279 298 332 59 313 50 201 77 288 39 145 342 341 277 323 356 312 297 312 309 302 185 207 223 222 248 253 256 243 235 235 241 250 251
67 87 81 83 81 78 90 103 70 76 29 37 78 106 66 9 307 264 182 119 77 320 30 14 38 25 40 190 144 251 56 36 9 6 355 341 5 49 344 65 52 90 42 359 128 144 97 99 64 87 190 309 101 276 284 291 34 16 326 285 13 1 329 145 130 348 12 319 351 316 296 298 328 99 71 17 231 267 270 253 261 250 253 245 242 245 249 250
72 82 91 90 92 93 106 128 202 49 29 69 90 69 128 21 263 217 55 71 117 24 29 6 54 57 27 5 346 358 77 40 310 337 12 7 59 243 74 68 90 49 19 7 46 74 73 61 22 110 188 257 316 24 257 249 168 43 18 12 339 325 5 293 17 326 294 209 250 292 223 213 18 21 29 90 169 274 244 238 244 240 239 257 283 277 247 251
106 86 92 86 88 125 143 93 42 49 218 63 50 179 207 46 248 282 74 101 55 81 245 145 206 48 0 241 10 232 83 131 44 251 324 351 95 92 75 179 32 41 64 319 94 88 71 58 178 210 153 222 275 255 36 306 198 133 60 345 351 250 289 274 284 298 196 169 50 4 205 61 21 44 8 350 341 279 179 253 253 237 221 218 242 247 244 238
139 115 98 77 88 118 200 64 95 163 107 73 110 119 48 43 298 298 103 73 86 297 255 43 218 82 200 15 6 32 211 57 283 344 305 26 247 98 171 64 342 146 207 63 67 66 62 135 234 246 189 175 181 84 13 279 308 218 79 213 231 281 280 281 310 251 346 11 25 326 343 93 51 32 4 347 315 302 242 235 259 251 235 220 238 245 240 238
135 134 100 75 94 136 114 172 105 192 97 190 124 95 216 263 293 177 285 36 105 340 43 22 193 70 192 357 348 236 182 120 81 259 39 37 12 324 77 35 100 43 48 126 184 84 164 126 159 171 250 244 250 195 88 292 287 81 78 150 166 208 275 324 320 349 73 290 224 30 16 354 87 39 352 325 302 358 24 19 303 271 261 262 269 274 271 265
149 114 100 74 52 216 225 115 141 184 159 89 58 89 112 84 52 313 54 91 190 352 100 52 16 277 46 230 3 83 36 331 174 45 69 317 261 43 62 131 91 114 140 253 268 72 358 119 1 156 210 242 15 25 38 284 305 40 144 220 235 314 1 320 306 50 37 257 78 40 2 226 67 54 192 330 7 10 12 2 6 8 19 338 288 285 282 277
131 117 107 95 84 78 71 108 134 147 118 98 59 130 118 167 191 108 129 142 132 80 117 92 347 75 350 250 46 38 81 6 64 351 330 251 45 260 87 80 121 107 93 259 119 155 59 2 7 321 284 137 67 57 358 292 272 105 125 111 82 102 89 296 315 210 164 258 42 6 354 322 95 8 7 124 342 354 345 332 322 332 324 320 318 317 310 308
125 112 112 111 100 88 23 52 49 74 71 130 124 138 127 166 244 350 39 291 160 156 324 277 243 311 328 57 17 1 59 14 105 307 19 60 354 42 50 321 134 104 67 47 64 64 64 43 295 314 18 25 64 71 9 2 43 101 166 198 178 206 235 257 53 336 240 97 55 22 0 343 85 29 19 357 2 313 313 314 310 314 330 329 314 316 320 324
106 91 87 28 92 136 60 48 108 149 143 155 180 170 191 39 108 102 123 202 58 13 258 21 5 344 42 123 101 9 110 352 1 348 89 334 58 56 140 106 252 95 106 81 70 107 192 170 195 76 275 93 296 145 112 337 48 240 211 258 176 180 204 199 170 259 236 76 84 33 342 314 15 83 48 355 293 243 282 301 316 321 326 325 323 327 321 312
89 73 62 68 136 189 93 151 135 146 172 182 181 89 92 251 6 248 211 336 161 225 107 208 42 93 76 346 71 355 29 33 14 27 47 15 77 125 6 143 174 138 166 165 129 239 138 39 68 321 99 285 201 253 134 184 193 220 220 222 273 20 229 181 42 205 30 22 84 17 340 268 196 55 324 320 340 335 257 269 298 309 309 317 323 329 325 316
101 98 75 52 104 61 43 52 102 169 172 215 87 42 51 97 197 148 142 338 119 347 150 30 44 22 120 79 61 337 294 70 344 85 228 28 121 46 55 290 349 329 267 140 99 194 107 131 256 124 196 95 292 275 122 187 146 231 267 343 307 19 50 2 19 225 259 141 64 258 24 274 28 267 231 303 337 339 322 295 289 294 298 311 316 321 321 313
112 96 72 21 69 65 88 95 104 194 172 21 80 60 49 93 223 83 134 260 58 327 15 71 139 101 21 84 126 331 120 328 314 34 276 111 342 169 200 225 256 100 84 147 187 174 202 206 154 291 158 353 281 343 358 355 328 41 355 298 14 88 10 19 285 330 13 338 96 111 267 102 203 119 183 293 304 311 307 282 284 266 272 279 294 282 281 314
95 78 105 107 86 67 58 47 259 241 196 67 65 78 138 235 197 182 205 182 233 314 94 299 87 93 55 67 336 248 290 107 30 324 36 167 179 200 185 162 220 267 128 164 315 105 282 337 71 338 352 312 30 35 297 307 214 160 263 250 245 86 292 334 46 315 74 310 250 171 307 187 265 350 287 268 284 250 240 238 246 319 318 288 297 347 349 342
83 8 71 50 34 25 85 338 247 254 88 78 99 84 200 186 78 173 82 128 95 159 145 119 78 73 24 87 18 73 158 309 134 299 51 344 354 210 43 72 186 212 185 241 132 178 346 197 53 135 196 25 32 253 173 287 317 95 229 58 41 340 115 114 130 102 238 229 151 357 260 201 267 280 238 11 297 49 9 10 8 4 358 350 5 355 354 345
90 302 57 359 38 14 64 126 258 111 69 101 114 213 197 279 280 161 236 148 204 136 168 144 204 178 185 182 174 211 183 129 38 240 186 86 232 196 187 182 14 171 281 333 175 306 255 108 105 193 148 120 2 267 315 256 302 272 167 112 105 11 324 281 7 178 265 318 78 249 326 319 233 161 133 139 25 25 2 10 343 4 6 9 355 350 347 342
100 67 105 56 4 2 30 269 212 64 77 80 150 105 197 102 266 24 129 138 103 327 133 122 50 341 202 150 203 178 236 232 138 148 155 216 171 103 115 149 161 293 29 304 308 164 275 134 135 41 329 149 139 225 219 181 245 329 31 57 272 169 167 92 246 231 260 268 322 251 278 253 256 126 173 107 12 354 3 352 2 9 2 355 347 342 341 336
70 110 75 17 57 340 332 225 66 75 50 48 164 241 199 339 45 132 198 324 305 116 180 197 116 335 121 185 91 7 181 199 138 196 174 185 199 161 154 138 159 163 181 264 279 142 329 287 124 122 259 19 265 228 228 128 108 180 269 153 92 280 18 211 68 348 299 135 274 133 304 264 193 188 156 115 91 350 340 354 8 350 350 343 341 334 330 332
127 79 313 61 359 29 149 240 64 47 93 202 188 225 64 169 148 161 216 250 135 179 179 125 254 116 271 9 190 153 161 72 177 169 272 34 258 21 230 315 146 152 163 298 276 291 115 326 244 102 242 274 201 203 273 94 158 172 208 171 113 33 321 36 57 356 322 146 213 321 281 201 163 182 139 123 114 133 327 336 328 334 333 333 328 325 323 322
349 95 249 349 348 238 279 49 48 46 137 29 29 144 297 163 158 105 99 294 72 334 235 165 155 170 181 127 232 211 139 168 182 188 204 196 213 216 51 72 212 143 172 116 219 199 135 225 247 122 167 231 72 37 358 3 348 333 314 151 155 147 153 202 181 122 5 256 188 207 298 293 110 166 153 139 129 151 209 282 297 307 316 318 317 320 324 321
137 157 212 74 333 238 87 70 37 281 100 167 171 169 135 168 94 100 117 117 314 114 359 108 31 106 145 152 64 156 144 162 168 12 240 219 102 19 73 328 343 336 198 162 162 128 325 92 108 147 22 14 26 66 39 20 342 349 304 3 1 348 301 233 281 158 194 102 343 23 307 294 78 185 182 129 135 141 302 267 268 287 296 299 307 309 312 299
59 118 275 355 334 122 70 66 46 74 64 10 315 38 10 95 103 154 168 244 182 237 47 37 174 133 219 182 190 132 207 139 174 200 114 237 172 41 72 35 268 190 242 80 49 152 189 150 97 20 232 237 188 117 159 353 256 241 199 272 230 205 261 324 359 136 170 116 193 168 252 217 126 168 206 224 236 282 258 234 254 277 279 282 295 319 327 321
101 115 99 22 292 84 122 194 183 168 119 306 79 84 324 151 146 135 226 185 184 163 180 155 76 327 118 104 136 165 216 179 238 109 203 182 143 95 132 311 269 154 249 89 201 138 197 234 239 107 201 171 179 178 195 171 208 239 247 158 289 84 71 107 111 325 214 208 255 182 249 205 148 78 168 200 233 249 254 225 223 261 288 305 323 327 318 315
114 19 28 319 4 41 208 170 137 129 168 145 137 133 137 53 336 324 182 168 174 145 140 170 38 147 95 105 79 83 34 355 125 337 34 104 91 126 146 240 267 232 8 336 296 329 305 126 186 186 176 184 195 230 212 191 197 170 143 127 198 164 142 157 166 162 255 113 133 222 248 256 89 233 219 208 231 245 216 225 223 236 261 283 305 309 312 311
154 140 309 358 11 51 68 10 82 133 132 160 102 207 147 138 143 178 181 95 292 96 355 98 74 126 103 160 99 86 97 7 359 167 158 159 179 143 15 79 154 332 354 250 348 269 125 62 300 248 285 285 17 27 14 358 86 204 178 177 173 225 287 344 67 147 222 143 199 228 233 346 286 215 223 223 128 309 315 276 246 241 256 288 295 308 316 314
100 118 153 184 15 37 71 92 117 129 174 180 197 158 183 149 117 117 228 235 183 188 101 6 168 152 202 130 159 117 332 95 47 100 152 142 118 318 175 83 313 226 265 269 321 174 96 209 197 140 247 14 12 127 345 329 211 131 137 186 167 177 188 181 186 199 126 115 248 234 204 207 259 219 213 211 205 274 264 269 284 280 305 322 317 303 293 284
171 198 98 207 138 195 152 249 159 108 29 185 159 114 161 147 181 160 99 10 64 266 161 175 183 278 179 180 148 146 159 94 181 173 117 332 118 135 144 230 202 84 182 207 317 248 208 226 104 97 244 88 304 344 339 311 327 245 255 149 176 186 176 194 221 144 175 217 254 71 166 202 250 251 246 207 359 290 279 281 310 317 298 284 283 286 300 318
33 107 127 331 231 293 56 59 148 144 121 150 89 148 161 187 192 184 157 124 272 215 236 200 218 204 195 188 190 120 174 143 238 146 185 162 182 140 119 17 221 130 143 109 66 254 198 223 137 248 258 162 82 22 7 268 271 250 220 208 194 173 202 211 214 186 221 238 32 163 212 244 258 268 255 272 167 246 264 305 310 279 265 274 277 292 322 339
201 152 189 11 69 103 54 94 125 136 160 207 170 221 174 186 182 148 305 162 172 238 130 253 234 169 166 179 176 165 205 204 162 181 189 140 106 244 212 214 131 40 210 169 151 109 256 174 100 194 283 304 24 33 46 40 214 268 239 203 195 203 224 229 258 243 328 295 268 247 266 283 260 212 250 214 149 255 282 266 252 245 251 252 276 324 346 353
64 12 145 136 107 60 76 95 130 159 127 179 207 218 155 205 210 165 184 250 205 170 180 207 146 105 65 178 220 258 249 194 177 136 175 165 176 192 164 195 139 141 162 141 216 78 307 132 65 106 263 244 22 349 354 22 325 240 272 224 189 167 201 200 204 207 174 216 111 176 258 253 262 106 101 154 196 236 245 254 256 209 224 247 308 356 350 348
92 81 41 102 100 243 142 40 26 109 226 205 185 184 198 206 143 155 156 187 140 318 235 150 164 126 135 174 222 213 192 161 151 31 111 65 74 74 53 65 122 153 160 148 291 160 187 135 160 176 181 269 84 355 327 317 270 282 252 224 191 198 177 92 252 219 214 147 153 181 229 239 70 140 154 185 216 240 248 239 229 184 212 269 350 339 332 328